Home   Weather   Taipei   Past weeks
Flag for Taiwan

Past Weather in Taipei, Taiwan — Yesterday and Last 2 Weeks

Now
66 °F

Partly cloudy.


Feels Like: 66 °F
Forecast: 75 / 63 °F
Wind: 3 mph from South

Location: Sungshan / Taipei

Current Time: Mar 30, 2020 at 6:04:49 am

Latest Report: Mar 30, 2020 at 5:00 am


Visibility: N/A

Pressure: 29.89 "Hg

Humidity: 88%

Dew Point: 63 °F

Location of TaipeiLocation

Past Weather in Taipei — Graph

°F

Taipei Temperature Yesterday

Maximum temperature yesterday: 68 °F (at 1:00 pm)
Minimum temperature yesterday: 57 °F (at 2:00 am)
Average temperature yesterday: 64 °F

High & Low Weather Summary for the Past Weeks

 TemperatureHumidityPressure
High91 °F (Mar 22, 2:30 pm)100% (Mar 27, 3:22 pm)30.21 "Hg (Mar 27, 3:22 pm)
Low52 °F (Mar 15, 5:00 am)32% (Mar 16, 1:00 pm)29.80 "Hg (Mar 22, 3:08 pm)
Average72 °F76%29.99 "Hg
* Reported Mar 15 4:00 am — Mar 30 4:00 am, Taipei. Weather by CustomWeather, © 2020

Note: Actual official high and low records may vary slightly from our data, if they occured in-between our weather recording intervals... More about our weather records

Taipei Weather History for the Previous 24 Hours

Scroll right to see more
 ConditionsComfort  
Time TempWeatherWind HumidityBarometerVisibility
4:00 am
Mon, Mar 30
66 °FPassing clouds.2 mph94%29.89 "HgN/A
3:00 am66 °FPassing clouds.5 mph88%29.92 "HgN/A
2:00 am66 °FPassing clouds.1 mph88%29.92 "HgN/A
1:00 am66 °FPassing clouds.3 mph88%29.95 "HgN/A
12:00 am66 °FPassing clouds.7 mph88%29.95 "HgN/A
11:30 pm
Sun, Mar 29
66 °FPassing clouds.7 mph88%29.95 "HgN/A
11:00 pm66 °FPartly cloudy.8 mph88%29.95 "HgN/A
10:30 pm66 °FPartly cloudy.9 mph88%29.95 "HgN/A
10:00 pm66 °FPassing clouds.8 mph88%29.98 "HgN/A
9:30 pm66 °FPassing clouds.7 mph88%29.98 "HgN/A
9:00 pm66 °FPassing clouds.6 mph88%29.98 "HgN/A
8:30 pm66 °FPassing clouds.7 mph88%29.98 "HgN/A
8:00 pm66 °FPassing clouds.9 mph83%29.95 "HgN/A
7:30 pm66 °FPassing clouds.9 mph83%29.95 "HgN/A
7:00 pm66 °FPartly cloudy.9 mph83%29.95 "HgN/A
6:30 pm66 °FPartly cloudy.12 mph83%29.92 "HgN/A
6:00 pm68 °FBroken clouds.8 mph73%29.92 "HgN/A
5:30 pm68 °FBroken clouds.8 mph73%29.92 "HgN/A
5:00 pm68 °FPartly sunny.9 mph73%29.89 "HgN/A
4:30 pm68 °FPartly sunny.12 mph73%29.89 "HgN/A
4:00 pm68 °FScattered clouds.15 mph73%29.89 "HgN/A
3:30 pm68 °FBroken clouds.15 mph73%29.89 "HgN/A
3:00 pm68 °FPartly sunny.15 mph73%29.89 "HgN/A
2:30 pm68 °FPartly sunny.16 mph73%29.92 "HgN/A
2:00 pm68 °FPartly sunny.17 mph69%29.95 "HgN/A
1:39 pm68 °FPartly sunny.16 mph69%29.95 "HgN/A
1:00 pm68 °FBroken clouds.14 mph69%29.98 "HgN/A
12:30 pm66 °FPartly sunny.13 mph73%30.01 "HgN/A
12:00 pm66 °FBroken clouds.14 mph73%30.04 "HgN/A
11:30 am66 °FBroken clouds.13 mph68%30.04 "HgN/A
11:00 am64 °FBroken clouds.13 mph73%30.07 "HgN/A
10:30 am64 °FBroken clouds.14 mph73%30.07 "HgN/A
10:00 am64 °FBroken clouds.14 mph73%30.09 "HgN/A
9:30 am63 °FPartly sunny.12 mph77%30.09 "HgN/A
9:00 am63 °FPartly sunny.12 mph77%30.09 "HgN/A
8:30 am63 °FPartly sunny.10 mph77%30.09 "HgN/A
8:00 am61 °FPartly sunny.10 mph83%30.09 "HgN/A
7:30 am61 °FPartly sunny.8 mph83%30.09 "HgN/A
7:00 am61 °FPartly sunny.8 mph83%30.09 "HgN/A
6:30 am59 °FPartly sunny.8 mph88%30.09 "HgN/A
6:00 am59 °FBroken clouds.8 mph88%30.07 "HgN/A
Weather by CustomWeather, © 2020

See weather overview

Advertising